Vorticity
nan nan nan nan nan nan nan nan nan nan nan nan nan nan nan nan nan nan nan nan nan nan nan nan nan nan nan nan nan nan nan nan nan nan nan nan nan nan nan nan nan nan nan nan nan nan nan nan nan nan nan nan nan nan nan nan nan nan nan nan nan nan nan nan nan nan nan nan nan
nan 7 7 7 5 5 7 9 10 9 8 8 9 10 9 8 8 8 8 8 8 8 8 9 9 8 8 8 9 9 9 8 8 9 10 11 11 10 10 10 9 8 7 7 8 7 8 8 7 6 6 8 9 9 8 8 8 7 7 7 9 9 10 11 11 12 13 13 nan
nan 7 7 8 7 6 6 8 9 9 8 7 9 10 9 8 9 9 9 9 9 9 8 8 9 9 8 8 9 9 9 8 9 9 10 11 12 11 9 9 8 8 7 8 8 6 6 7 7 7 7 7 7 7 8 9 9 9 11 12 10 8 8 10 11 12 12 12 nan
nan 7 7 9 8 5 4 7 8 8 7 7 8 9 9 8 8 9 9 10 9 9 8 7 7 8 8 9 8 8 8 8 8 9 10 10 10 10 9 8 8 8 8 9 8 7 7 7 7 8 9 9 9 9 9 8 9 10 11 12 9 8 8 8 9 10 9 8 nan
nan 8 8 10 10 6 4 7 9 7 7 8 7 8 7 8 9 9 8 8 8 8 8 7 5 5 7 8 9 9 9 10 10 11 11 10 9 9 9 8 8 8 9 9 8 8 9 7 7 8 9 10 11 10 8 8 8 7 7 7 7 7 7 7 8 8 7 6 nan
nan 8 8 10 10 6 7 9 10 7 7 9 8 6 5 6 8 8 7 6 7 8 8 7 6 6 8 9 10 10 10 11 13 12 10 9 9 9 9 9 9 9 8 9 9 10 10 8 7 8 8 7 8 7 8 9 7 6 4 4 5 6 7 6 8 8 6 4 nan
nan 9 8 9 9 6 5 7 9 8 8 10 10 7 4 4 6 6 6 6 6 8 9 9 9 9 9 9 9 9 9 9 10 10 9 8 8 8 8 9 9 9 8 8 10 10 10 9 8 8 7 7 8 8 9 8 6 5 3 2 5 6 8 9 9 8 6 5 nan
nan 11 9 9 9 8 7 6 6 6 6 8 10 10 7 6 6 5 4 5 7 8 8 10 11 10 10 9 8 8 9 8 8 9 9 9 8 8 8 9 9 9 10 10 10 9 9 9 8 8 8 9 8 8 8 7 4 3 2 3 5 7 8 9 7 6 5 7 nan
nan 11 11 9 9 10 9 8 7 6 6 7 9 10 9 6 6 5 5 6 8 8 9 10 11 11 10 9 9 9 9 10 9 8 8 8 8 8 8 9 9 9 10 11 11 10 9 9 7 7 6 7 5 5 6 6 4 3 4 9 8 6 5 5 4 4 5 8 nan
nan 9 10 9 9 10 10 9 9 8 8 8 9 9 9 7 6 6 7 8 9 9 9 10 11 10 10 9 9 9 9 9 9 9 8 7 8 8 7 7 8 8 8 9 11 12 10 9 6 5 4 5 5 5 6 6 6 6 6 8 6 4 3 3 5 6 8 10 nan
nan 7 8 9 10 10 9 8 9 9 9 9 9 9 9 8 7 7 7 8 9 9 9 9 10 10 9 9 10 9 8 8 8 8 8 8 8 8 8 7 7 7 8 7 9 10 10 9 7 5 4 3 7 9 9 8 8 8 7 3 3 4 6 5 7 10 12 12 nan
nan 7 8 9 11 10 9 7 7 9 10 9 8 8 8 9 8 7 7 7 7 7 8 10 11 10 9 8 9 9 8 8 7 7 8 8 8 8 8 8 8 8 8 8 8 8 9 7 6 6 5 4 7 9 9 9 9 8 7 4 5 7 8 7 8 9 9 9 nan
nan 7 7 9 10 9 8 6 6 9 10 9 8 8 8 9 9 8 8 7 6 6 8 10 11 10 9 8 7 7 8 8 8 7 7 8 8 8 8 8 9 9 9 10 9 8 7 6 6 6 6 7 5 5 6 7 8 8 8 8 8 8 7 8 8 7 6 7 nan
nan 8 8 9 8 7 7 5 6 8 10 9 8 8 8 10 10 10 10 9 7 7 8 9 10 10 9 8 6 7 7 7 8 8 7 7 8 8 8 8 9 9 9 9 9 8 7 6 6 7 7 7 5 5 5 7 7 8 8 9 8 8 8 8 8 8 8 9 nan
nan 8 8 8 7 6 6 6 6 9 10 9 8 8 8 10 11 11 10 10 9 8 8 8 8 9 10 8 7 7 7 8 8 8 8 8 8 8 8 8 8 8 8 7 7 8 8 8 8 8 8 8 7 7 7 7 7 7 8 8 8 8 8 8 8 9 9 10 nan
nan 7 7 8 6 5 5 5 6 9 10 9 9 9 8 9 11 12 11 9 9 9 9 7 7 8 9 9 9 9 9 9 9 9 9 8 8 8 8 8 8 8 7 7 6 7 8 9 9 10 9 9 8 8 8 8 8 8 8 8 8 8 8 8 8 9 9 9 nan
nan 7 7 8 7 5 4 3 4 8 9 9 9 8 8 8 10 12 12 8 7 8 8 6 6 6 7 9 10 11 11 10 9 9 9 8 8 8 8 8 8 8 8 8 7 7 8 8 9 10 10 9 9 9 9 9 9 9 9 9 10 10 9 8 8 9 10 10 nan
nan 7 8 8 7 6 5 4 4 6 8 9 8 8 8 9 9 10 11 10 8 8 7 6 6 7 7 7 8 9 9 9 9 8 8 8 8 8 8 8 8 9 9 9 9 9 9 9 9 9 9 9 9 9 9 10 10 10 10 10 11 11 10 9 9 9 10 11 nan
nan 7 8 8 8 7 7 6 5 6 7 8 8 9 9 9 8 8 9 10 9 8 7 6 6 7 8 8 6 7 8 10 9 8 8 8 9 8 8 8 8 9 9 10 10 10 10 10 10 8 8 7 7 7 8 9 9 9 10 13 13 12 11 10 9 9 8 11 nan
nan 7 8 8 8 8 8 8 7 7 7 8 10 9 9 8 8 8 7 8 9 9 8 7 6 6 7 8 7 7 8 10 11 10 9 9 9 8 8 9 9 10 10 11 10 11 10 10 9 9 8 7 6 7 8 9 9 10 11 14 14 13 12 11 9 9 9 13 nan
nan 8 8 9 9 9 9 9 8 8 8 9 10 9 9 9 9 8 8 9 9 9 8 8 7 6 6 7 7 7 8 10 11 11 10 10 9 9 9 10 10 10 10 10 10 10 10 10 9 9 9 9 9 9 9 9 9 11 12 12 12 12 12 11 10 11 13 17 nan
nan 9 10 10 10 9 8 8 8 8 10 9 9 8 9 9 9 8 8 9 9 9 9 9 8 8 8 7 8 7 7 8 10 9 9 9 9 10 10 11 11 10 9 10 11 11 12 11 11 10 10 10 10 9 8 7 10 14 17 16 15 14 15 14 14 16 19 23 nan
nan 9 10 11 12 11 9 7 8 8 9 9 8 8 9 9 8 9 9 8 8 8 7 9 10 10 9 9 9 8 7 6 7 7 8 8 8 9 10 11 11 11 11 12 12 11 10 12 14 14 13 12 12 11 11 13 19 23 24 21 19 18 17 16 17 18 20 22 nan
nan 8 8 10 12 12 10 8 8 8 8 9 9 9 9 8 8 9 9 8 7 7 6 7 9 11 11 10 10 10 9 7 7 7 8 8 9 10 11 11 12 12 13 10 2 -2 -2 3 9 13 14 13 12 12 15 20 24 24 22 19 16 15 14 14 14 16 17 18 nan
nan 9 7 8 10 10 9 8 8 7 8 9 9 9 9 9 8 8 9 8 8 8 7 6 7 8 9 11 11 11 11 11 9 8 8 8 9 10 10 10 12 13 11 2 -8 -10 -7 -3 2 6 9 11 11 13 17 23 21 17 13 12 10 10 10 11 13 15 17 16 nan
nan 10 8 8 9 9 8 8 8 8 8 9 8 7 7 8 8 8 8 8 8 9 9 9 8 8 8 10 11 11 11 11 11 10 8 8 8 9 9 9 10 10 6 -5 -8 -4 1 3 4 5 9 11 12 16 21 23 17 12 9 9 9 9 9 9 11 14 15 16 nan
nan 9 9 9 8 8 8 8 8 8 7 8 9 8 7 7 7 8 8 8 9 9 10 10 10 11 11 13 12 10 8 8 10 10 9 9 8 8 8 9 9 6 -1 -9 -7 0 5 8 9 10 13 11 15 20 22 18 13 11 11 10 10 9 9 10 11 12 13 14 nan
nan 9 8 9 8 8 7 8 8 8 8 8 8 8 8 8 7 7 7 8 8 8 9 11 12 13 14 13 13 11 9 7 8 9 11 10 9 9 9 8 7 1 -7 -11 -4 3 8 10 11 11 12 13 22 23 21 14 12 11 11 10 9 9 10 12 14 14 14 13 nan
nan 8 9 9 8 7 8 8 9 8 8 9 9 8 8 8 7 6 6 6 6 7 7 10 11 11 11 10 11 11 11 9 9 9 9 9 10 10 9 7 5 0 -6 -5 1 6 9 10 11 10 9 17 28 25 20 13 11 11 10 9 8 8 9 11 12 13 14 14 nan
nan 9 10 9 8 7 8 8 9 8 8 9 10 9 8 7 7 7 7 7 7 7 6 8 9 8 8 8 9 10 10 10 10 9 8 8 8 8 8 8 6 2 -2 -1 4 7 10 10 10 9 8 20 32 29 19 12 10 10 9 8 7 7 8 10 11 13 13 13 nan
nan 9 9 9 8 8 8 8 9 9 8 9 10 9 7 7 7 8 9 9 9 9 8 8 8 8 8 9 8 9 9 9 9 9 9 9 7 8 9 9 7 3 -2 -1 5 8 10 10 9 8 8 24 37 31 18 11 10 9 8 6 6 6 8 10 12 12 13 13 nan
nan 9 9 9 8 8 8 9 10 10 9 9 8 7 7 6 7 8 9 10 10 11 10 9 9 8 8 9 9 9 10 9 8 7 7 7 9 9 8 9 8 4 -2 -1 5 8 9 10 9 8 9 27 36 27 16 11 10 9 8 7 7 7 8 8 9 10 12 14 nan
nan 9 9 8 8 8 9 9 10 10 9 8 8 7 7 6 5 7 8 8 10 11 11 10 10 9 8 8 9 9 9 9 9 8 8 8 9 8 8 10 10 4 -2 -1 4 8 9 10 9 9 11 29 36 24 15 10 10 9 9 8 9 8 8 7 7 8 10 13 nan
nan 9 9 8 8 8 9 9 10 9 9 8 7 7 6 6 5 5 6 6 8 9 11 11 12 12 11 10 10 9 8 8 9 10 10 10 10 9 8 10 7 -0 -4 -1 5 8 10 10 9 9 14 32 35 22 12 8 8 8 8 8 9 9 8 7 7 8 9 12 nan
nan 9 8 8 8 8 9 9 9 9 8 7 7 7 6 7 7 6 7 7 6 7 9 11 12 12 12 11 10 9 8 8 8 9 9 9 9 9 9 8 3 -2 -3 1 6 9 10 10 8 10 20 35 33 19 10 8 8 9 10 10 10 9 7 6 7 8 9 11 nan
nan 9 8 8 8 8 9 9 9 8 8 7 7 7 7 6 7 9 11 10 7 7 8 9 10 10 10 10 9 9 9 10 9 9 8 8 8 8 8 8 5 2 1 4 7 9 9 9 9 12 25 38 30 14 8 9 11 12 12 12 11 9 7 6 7 7 8 9 nan
nan 9 9 8 8 8 9 9 9 8 8 7 7 8 8 6 6 9 11 11 8 8 7 8 8 9 9 10 9 9 9 9 9 8 8 8 7 7 7 8 8 7 5 5 6 7 9 9 10 15 28 38 26 12 7 9 12 13 14 13 11 9 7 6 7 8 8 6 nan
nan 10 9 9 9 9 8 9 9 8 8 7 7 8 9 9 8 10 12 10 8 9 8 8 9 8 8 8 9 10 10 9 9 8 8 9 8 7 7 8 9 9 6 3 4 6 8 9 10 15 27 35 25 12 8 9 11 12 13 12 10 8 7 7 8 9 9 1 nan
nan 10 10 9 9 9 9 8 8 8 8 8 7 7 7 8 9 10 12 11 8 10 10 9 8 8 8 6 6 8 10 11 11 10 9 9 7 4 4 7 9 7 3 1 3 6 9 10 10 13 24 34 28 14 9 9 10 11 11 11 9 8 8 9 10 10 9 -0 nan
nan 11 10 9 9 9 9 9 8 8 8 10 9 8 7 7 8 9 10 11 9 10 10 10 9 8 8 7 7 8 9 10 12 11 10 8 5 4 6 10 9 7 4 4 4 7 9 10 10 13 25 34 27 13 9 9 8 9 11 11 9 9 9 10 11 10 10 6 nan
nan nan nan nan nan nan nan nan nan nan nan nan nan nan nan nan nan nan nan nan nan nan nan nan nan nan nan nan nan nan nan nan nan nan nan nan nan nan nan nan nan nan nan nan nan nan nan nan nan nan nan nan nan nan nan nan nan nan nan nan nan nan nan nan nan nan nan nan nan
CAPE
nan nan nan nan nan nan nan nan nan nan nan nan nan nan nan nan nan nan nan nan nan nan nan nan nan nan nan nan nan nan nan nan nan nan nan nan nan nan nan nan nan nan nan nan nan nan nan nan nan nan nan nan nan nan nan nan nan nan nan nan nan nan nan nan nan nan nan nan nan
nan nan nan nan nan nan nan nan nan nan nan nan nan nan nan nan nan nan nan nan nan nan nan nan nan nan nan nan nan nan nan nan nan nan nan nan nan nan nan nan nan nan nan nan nan nan nan nan nan nan nan nan nan nan nan nan nan nan nan nan nan nan nan nan nan nan nan nan nan
nan nan nan nan nan nan nan nan nan nan nan nan nan nan nan nan nan nan nan nan nan nan nan nan nan nan nan nan nan nan nan nan nan nan nan nan nan nan nan nan nan nan nan nan nan nan nan nan nan nan nan nan nan nan nan nan nan nan nan nan nan nan nan nan nan nan nan nan nan
nan nan nan nan nan nan nan nan nan nan nan nan nan nan nan nan nan nan nan nan nan nan nan nan nan nan nan nan nan nan nan nan nan nan nan nan nan nan nan nan nan nan nan nan nan nan nan nan nan nan nan nan nan nan nan nan nan nan nan nan nan nan nan nan nan nan nan nan nan
nan nan nan nan nan nan nan nan nan nan nan nan nan nan nan nan nan nan nan nan nan nan nan nan nan nan nan nan nan nan nan nan nan nan nan nan nan nan nan nan nan nan nan nan nan nan nan nan nan nan nan nan nan nan nan nan nan nan nan nan nan nan nan nan nan nan nan nan nan
nan nan nan nan nan nan nan nan nan nan nan nan nan nan nan nan nan nan nan nan nan nan nan nan nan nan nan nan nan nan nan nan nan nan nan nan nan nan nan nan nan nan nan nan nan nan nan nan nan nan nan nan nan nan nan nan nan nan nan nan nan nan nan nan nan nan nan nan nan
nan nan nan nan nan nan nan nan nan nan nan nan nan nan nan nan nan nan nan nan nan nan nan nan nan nan nan nan nan nan nan nan nan nan nan nan nan nan nan nan nan nan nan nan nan nan nan nan nan nan nan nan nan nan nan nan nan nan nan nan nan nan nan nan nan nan nan nan nan
nan nan nan nan nan nan nan nan nan nan nan nan nan nan nan nan nan nan nan nan nan nan nan nan nan nan nan nan nan nan nan nan nan nan nan nan nan nan nan nan nan nan nan nan nan nan nan nan nan nan nan nan nan nan nan nan nan nan nan nan nan nan nan nan nan nan nan nan nan
nan nan nan nan nan nan nan nan nan nan nan nan nan nan nan nan nan nan nan nan nan nan nan nan nan nan nan nan nan nan nan nan nan nan nan nan nan nan nan nan nan nan nan nan nan nan nan nan nan nan nan nan nan nan nan nan nan nan nan nan nan nan nan nan nan nan nan nan nan
nan nan nan nan nan nan nan nan nan nan nan nan nan nan nan nan nan nan nan nan nan nan nan nan nan nan nan nan nan nan nan nan nan nan nan nan nan nan nan nan nan nan nan nan nan nan nan nan nan nan nan nan nan nan nan nan nan nan nan nan nan nan nan nan nan nan nan nan nan
nan nan nan nan nan nan nan nan nan nan nan nan nan nan nan nan nan nan nan nan nan nan nan nan nan nan nan nan nan nan nan nan nan nan nan nan nan nan nan nan nan nan nan nan nan nan nan nan nan nan nan nan nan nan nan nan nan nan nan nan nan nan nan nan nan nan nan nan nan
nan nan nan nan nan nan nan nan nan nan nan nan nan nan nan nan nan nan nan nan nan nan nan nan nan nan nan nan nan nan nan nan nan nan nan nan nan nan nan nan nan nan nan nan nan nan nan nan nan nan nan nan nan nan nan nan nan nan nan nan nan nan nan nan nan nan nan nan nan
nan nan nan nan nan nan nan nan nan nan nan nan nan nan nan nan nan nan nan nan nan nan nan nan nan nan nan nan nan nan nan nan nan nan nan nan nan nan nan nan nan nan nan nan nan nan nan nan nan nan nan nan nan nan nan nan nan nan nan nan nan nan nan nan nan nan nan nan nan
nan nan nan nan nan nan nan nan nan nan nan nan nan nan nan nan nan nan nan nan nan nan nan nan nan nan nan nan nan nan nan nan nan nan nan nan nan nan nan nan nan nan nan nan nan nan nan nan nan nan nan nan nan nan nan nan nan nan nan nan nan nan nan nan nan nan nan nan nan
nan nan nan nan nan nan nan nan nan nan nan nan nan nan nan nan nan nan nan nan nan nan nan nan nan nan nan nan nan nan nan nan nan nan nan nan nan nan nan nan nan nan nan nan nan nan nan nan nan nan nan nan nan nan nan nan nan nan nan nan nan nan nan nan nan nan nan nan nan
nan nan nan nan nan nan nan nan nan nan nan nan nan nan nan nan nan nan nan nan nan nan nan nan nan nan nan nan nan nan nan nan nan nan nan nan nan nan nan nan nan nan nan nan nan nan nan nan nan nan nan nan nan nan nan nan nan nan nan nan nan nan nan nan nan nan nan nan nan
nan nan nan nan nan nan nan nan nan nan nan nan nan nan nan nan nan nan nan nan nan nan nan nan nan nan nan nan nan nan nan nan nan nan nan nan nan nan nan nan nan nan nan nan nan nan nan nan nan nan nan nan nan nan nan nan nan nan nan nan nan nan nan nan nan nan nan nan nan
nan nan nan nan nan nan nan nan nan nan nan nan nan nan nan nan nan nan nan nan nan nan nan nan nan nan nan nan nan nan nan nan nan nan nan nan nan nan nan nan nan nan nan nan nan nan nan nan nan nan nan nan nan nan nan nan nan nan nan nan nan nan nan nan nan nan nan nan nan
nan nan nan nan nan nan nan nan nan nan nan nan nan nan nan nan nan nan nan nan nan nan nan nan nan nan nan nan nan nan nan nan nan nan nan nan nan nan nan nan nan nan nan nan nan nan nan nan nan nan nan nan nan nan nan nan nan nan nan nan nan nan nan nan nan nan nan nan nan
nan nan nan nan nan nan nan nan nan nan nan nan nan nan nan nan nan nan nan nan nan nan nan nan nan nan nan nan nan nan nan nan nan nan nan nan nan nan nan nan nan nan nan nan nan nan nan nan nan nan nan nan nan nan nan nan nan nan nan nan nan nan nan nan nan nan nan nan nan
nan nan nan nan nan nan nan nan nan nan nan nan nan nan nan nan nan nan nan nan nan nan nan nan nan nan nan nan nan nan nan nan nan nan nan nan nan nan nan nan nan nan nan nan nan nan nan nan nan nan nan nan nan nan nan nan nan nan nan nan nan nan nan nan nan nan nan nan nan
nan nan nan nan nan nan nan nan nan nan nan nan nan nan nan nan nan nan nan nan nan nan nan nan nan nan nan nan nan nan nan nan nan nan nan nan nan nan nan nan nan nan nan nan nan nan nan nan nan nan nan nan nan nan nan nan nan nan nan nan nan nan nan nan nan nan nan nan nan
nan nan nan nan nan nan nan nan nan nan nan nan nan nan nan nan nan nan nan nan nan nan nan nan nan nan nan nan nan nan nan nan nan nan nan nan nan nan nan nan nan nan nan nan nan nan nan nan nan nan nan nan nan nan nan nan nan nan nan nan nan nan nan nan nan nan nan nan nan
nan nan nan nan nan nan nan nan nan nan nan nan nan nan nan nan nan nan nan nan nan nan nan nan nan nan nan nan nan nan nan nan nan nan nan nan nan nan nan nan nan nan nan nan nan nan nan nan nan nan nan nan nan nan nan nan nan nan nan nan nan nan nan nan nan nan nan nan nan
nan nan nan nan nan nan nan nan nan nan nan nan nan nan nan nan nan nan nan nan nan nan nan nan nan nan nan nan nan nan nan nan nan nan nan nan nan nan nan nan nan nan nan nan 7 7 33 37 26 26 9 1 nan nan nan nan nan nan nan nan nan nan nan nan nan nan nan nan nan
nan nan nan nan nan nan nan nan nan nan nan nan nan nan nan nan nan nan nan nan nan nan nan nan nan nan nan nan nan nan nan nan nan nan nan nan nan nan nan nan nan nan nan nan 14 14 31 52 69 69 34 0 nan nan nan nan nan nan nan nan nan nan nan nan nan nan nan nan nan
nan nan nan nan nan nan nan nan nan nan nan nan nan nan nan nan nan nan nan nan nan nan nan nan nan nan nan nan nan nan nan nan nan nan nan nan nan nan nan nan nan nan nan nan 20 20 37 53 71 71 62 4 nan nan nan nan nan nan nan nan nan nan nan nan nan nan nan nan nan
nan nan nan nan nan nan nan nan nan nan nan nan nan nan nan nan nan nan nan nan nan nan nan nan nan nan nan nan nan nan nan nan nan nan nan nan nan nan nan nan nan nan nan 7 25 25 36 51 67 67 87 40 nan nan nan nan nan nan nan nan nan nan nan nan nan nan nan nan nan
nan nan nan nan nan nan nan nan nan nan nan nan nan nan nan nan nan nan nan nan nan nan nan nan nan nan nan nan nan nan nan nan nan nan nan nan nan nan nan nan nan nan nan 12 24 24 32 48 66 66 97 94 8 nan nan nan nan nan nan nan nan nan nan nan nan nan nan nan nan
nan nan nan nan nan nan nan nan nan nan nan nan nan nan nan nan nan nan nan nan nan nan nan nan nan nan nan nan nan nan nan nan nan nan nan nan nan nan nan nan nan nan nan 8 20 20 31 47 66 66 93 123 35 nan nan nan nan nan nan nan nan nan nan nan nan nan nan nan nan
nan nan nan nan nan nan nan nan nan nan nan nan nan nan nan nan nan nan nan nan nan nan nan nan nan nan nan nan nan nan nan nan nan nan nan nan nan nan nan nan nan nan nan 5 18 18 30 48 63 63 83 156 33 nan nan nan nan nan nan nan nan nan nan nan nan nan nan nan nan
nan nan nan nan nan nan nan nan nan nan nan nan nan nan nan nan nan nan nan nan nan nan nan nan nan nan nan nan nan nan nan nan nan nan nan nan nan nan nan nan nan nan nan 5 17 17 30 45 61 61 83 163 28 nan nan nan nan nan nan nan nan nan nan nan nan nan nan nan nan
nan nan nan nan nan nan nan nan nan nan nan nan nan nan nan nan nan nan nan nan nan nan nan nan nan nan nan nan nan nan nan nan nan nan nan nan nan nan nan nan nan nan nan 8 17 17 30 41 52 52 84 168 1 nan nan nan nan nan nan nan nan nan nan nan nan nan nan nan nan
nan nan nan nan nan nan nan nan nan nan nan nan nan nan nan nan nan nan nan nan nan nan nan nan nan nan nan nan nan nan nan nan nan nan nan nan nan nan nan nan nan nan nan 8 17 17 28 36 46 46 80 144 nan nan nan nan nan nan nan nan nan nan nan nan nan nan nan nan nan
nan nan nan nan nan nan nan nan nan nan nan nan nan nan nan nan nan nan nan nan nan nan nan nan nan nan nan nan nan nan nan nan nan nan nan nan nan nan nan nan nan nan nan 7 15 15 25 33 41 41 77 91 nan nan nan nan nan nan nan nan nan nan nan nan nan nan nan nan nan
nan nan nan nan nan nan nan nan nan nan nan nan nan nan nan nan nan nan nan nan nan nan nan nan nan nan nan nan nan nan nan nan nan nan nan nan nan nan nan nan nan nan nan 5 12 12 20 29 34 34 75 17 nan nan nan nan nan nan nan nan nan nan nan nan nan nan nan nan nan
nan nan nan nan nan nan nan nan nan nan nan nan nan nan nan nan nan nan nan nan nan nan nan nan nan nan nan nan nan nan nan nan nan nan nan nan nan nan nan nan nan nan nan 1 8 8 16 23 29 29 67 nan nan nan nan nan nan nan nan nan nan nan nan nan nan nan nan nan nan
nan nan nan nan nan nan nan nan nan nan nan nan nan nan nan nan nan nan nan nan nan nan nan nan nan nan nan nan nan nan nan nan nan nan nan nan nan nan nan nan nan nan nan nan 8 8 12 19 26 26 54 nan nan nan nan nan nan nan nan nan nan nan nan nan nan nan nan nan nan
nan nan nan nan nan nan nan nan nan nan nan nan nan nan nan nan nan nan nan nan nan nan nan nan nan nan nan nan nan nan nan nan nan nan nan nan nan nan nan nan nan nan nan nan 6 6 9 17 24 24 49 13 nan nan nan nan nan nan nan nan nan nan nan nan nan nan nan nan 2
nan nan nan nan nan nan nan nan nan nan nan nan nan nan nan nan nan nan nan nan nan nan nan nan nan nan nan nan nan nan nan nan nan nan nan nan nan nan nan nan nan nan nan nan 3 3 7 15 25 25 39 37 nan nan nan nan nan nan nan nan nan nan nan nan nan nan nan nan nan
nan nan nan nan nan nan nan nan nan nan nan nan nan nan nan nan nan nan nan nan nan nan nan nan nan nan nan nan nan nan nan nan nan nan nan nan nan nan nan nan nan nan nan nan nan nan 8 17 26 26 34 49 nan nan nan nan nan nan nan nan nan nan nan nan nan nan nan nan nan